Location: Newark
(44.2886°N, 4.8431°E)
Time: 14:41:18
(UTC+00:00)

ZACube-1 - Pass Details

Date: 02 December 2020
Orbit: 584 x 665 km, 97.6° (Epoch: 14 January)

Event Time Altitude Azimuth Distance (km) Brightness Sun altitude
Rises 16:49:54 0° 193° (SSW) 2,854 ? -8.4°
Reaches altitude 10° 16:52:21 10° 205° (SSW) 1,943 ? -8.8°
Maximum altitude 16:55:57 27° 265° (W) 1,148 ? -9.4°
Drops below altitude 10° 16:59:33 10° 324° (NW) 1,927 ? -10.0°
Sets 17:01:58 0° 337° (NNW) 2,827 ? -10.4°
